Flag for U.S.A. Weather past 2 weeks in Stockton, California, U.S.A.

Now
95 °F

Sunny.


Feels Like: 93 °F
Forecast: 63 / 92 °F
Wind: 12 mph from Northwest

Location: Stockton Metropolitan Airport

Current Time: Sep 2, 2014 at 4:10:24 PM

Latest Report: Sep 2, 2014 at 2:55 PM


Visibility: 10 mi

Pressure: 29.72 "Hg

Humidity: 26%

Dew point: 55 °F

Location of StocktonLocation

Historic Weather in Stockton — Graph

°F

Stockton temperature yesterday

Maximum temperature yesterday: 100 °F (at 4:55 PM)
Minimum temperature yesterday: 63 °F (at 6:55 AM)
Average temperature yesterday: 81 °F

Past Weeks' High & Low Weather Summary

 TemperatureHumidityPressure
High100 °F (Sep 1, 4:55 PM)96% (Aug 21, 6:55 AM)30.04 "Hg (Aug 21, 6:55 AM)
Low57 °F (Aug 23, 4:55 AM)12% (Aug 30, 2:55 PM)29.69 "Hg (Sep 1, 6:55 PM)
Average75 °F52%29.85 "Hg
* Reported Aug 18 2:55 PM — Sep 2 2:55 PM, Stockton, Weather by CustomWeather, © 2014

Note: Actual official high and low records may vary slightly from our data, if they occured in-between our weather recording intervals... More about our weather records

Advertising

Stockton weather history for previous 24 hours

 ConditionsComfort  
Time TempWeatherWind HumidityBarometerVisibility
2:55 PM
Sep 2
95 °FSunny.12 mph26%29.72 "Hg10 mi
1:55 PM93 °FSunny.5 mph24%29.74 "Hg10 mi
12:55 PM91 °FSunny.7 mph28%29.77 "Hg10 mi
11:55 AM89 °FSunny.6 mph30%29.78 "Hg10 mi
10:55 AM83 °FSunny.5 mph40%29.78 "Hg10 mi
9:55 AM79 °FSunny.7 mph44%29.79 "Hg10 mi
8:55 AM76 °FSunny.5 mph50%29.79 "Hg10 mi
7:55 AM71 °FSunny.3 mph63%29.78 "Hg8 mi
6:55 AM64 °FClear.5 mph70%29.77 "Hg7 mi
5:55 AM66 °FClear.3 mph63%29.75 "Hg10 mi
4:55 AM66 °FClear.No wind63%29.74 "Hg10 mi
3:55 AM66 °FClear.No wind63%29.73 "Hg10 mi
2:55 AM67 °FClear.No wind57%29.73 "Hg10 mi
1:55 AM70 °FClear.No wind53%29.73 "Hg10 mi
12:55 AM72 °FClear.No wind48%29.74 "Hg10 mi
11:55 PM
Sep 1
76 °FClear.6 mph40%29.73 "Hg10 mi
10:55 PM81 °FClear.8 mph32%29.73 "Hg10 mi
9:55 PM82 °FClear.7 mph34%29.73 "Hg10 mi
8:55 PM85 °FClear.10 mph31%29.72 "Hg10 mi
7:55 PM90 °FSunny.10 mph24%29.70 "Hg10 mi
6:55 PM96 °FSunny.10 mph19%29.69 "Hg10 mi
5:55 PM98 °FSunny.12 mph17%29.70 "Hg10 mi
4:55 PM100 °FSunny.13 mph16%29.71 "Hg9 mi
Weather by CustomWeather, © 2014

See weather overviewHow to use our weather pages